Regional Weather Roundup
Issued by NWS

Home | Current Version | Previous Version | Graphics & Text | Print | Product List | Glossary On
Versions: 1 2 3 4 5 6 7 8 9 10 11 12 13 14 15 16 17 18 19 20 21 22 23 24 25 26 27 28 29 30 31 32 33 34 35 36 37 38 39 40 41 42 43 44 45 46 47 48 49 50
859
ASUS43 KLOT 101103
RWRIL

ILLINOIS REGIONAL WEATHER ROUNDUP
NATIONAL WEATHER SERVICE CHICAGO/ROMEOVILLE IL
500 AM CST WED FEB 10 2016

NOTE: "FAIR" INDICATES FEW OR NO CLOUDS BELOW 12,000 FEET WITH NO
SIGNIFICANT WEATHER AND/OR OBSTRUCTIONS TO VISIBILITY.

* THESE STATIONS ARE NOT UNDER NWS QUALITY CONTROL. THEY ALSO MAY NOT
  REPORT WEATHER SUCH AS PRECIPITATION OR FOG.

ILZ001-002-007-009-015-016-024-101200-
NORTHWEST ILLINOIS

CITY           SKY/WX    TMP DP  RH WIND       PRES   REMARKS
MOLINE         PTCLDY     8  -1  66 W7        30.09F WCI  -3
STERLING*      CLEAR      9  -2  61 NW7       30.03S WCI  -3
$$

ILZ003-004-008-010-011-017-018-101200-
NORTH CENTRAL ILLINOIS

CITY           SKY/WX    TMP DP  RH WIND       PRES   REMARKS
ROCKFORD       FLURRIES  10   1  67 NW13      30.03R WCI  -5
FREEPORT*      CLEAR      5  -2  71 NW7       30.05R WCI  -7
ROCHELLE*      PTCLDY     8   1  72 NW8       30.02S WCI  -5
DE KALB*       CLOUDY     8   2  76 NW9       29.99S WCI  -5
$$

ILZ005-006-012>014-019>023-101200-
NORTHEAST ILLINOIS

CITY           SKY/WX    TMP DP  RH WIND       PRES   REMARKS
CHICAGO-OHARE  PTCLDY    10   0  63 NW16      29.97S WCI  -7
CHICAGO-MIDWAY PTCLDY    12   0  58 NW12      29.98S WCI  -2
AURORA         CLEAR      9   2  73 NW13      30.01R WCI  -7
LANSING*       CLEAR     12   2  65 NW12G18   29.98S WCI  -2
WAUKEGAN       CLEAR      8   0  69 W6        29.96S WCI  -2
DUPAGE AIRPORT CLEAR      9  -2  61 NW12      29.98S WCI  -6
WHEELING       CLEAR      9   0  67 NW10      29.99R WCI  -5
MORRIS*        CLEAR      9   2  73 NW10      29.99R WCI  -5
NORTHERLY ISL    N/A     13   4  67 W14         N/A  WCI  -2
$$

LMZ740>746-101200-
SOUTHERN LAKE MICHIGAN

STATION/POSITION SKY/WX   TEMP    WIND        PRES    VSBY  WAVE
                          AIR SEA DIR/SP/G                  HT/PER
                          (F)     (DEG/KT/KT) (MB)    (MI)  (FT/S)
HARRISON CRIB              14     300/ 19/ 22   N/A
BURNHAM HARBOR             13     320/  8/ 19   N/A
CALUMET HARBOR             12     300/ 10/ 14 1014.4R
BURNS HARBOR               17     310/ 20/ 25 1013.9R
MICHIGAN CITY              19     280/ 25/ 28   N/A
$$

ILZ025>027-034>036-040-047-049-050-058-095>099-101200-
WEST-CENTRAL ILLINOIS

CITY           SKY/WX    TMP DP  RH WIND       PRES   REMARKS
QUINCY         CLOUDY    11   4  73 W6        30.13F WCI   1
MACOMB*        CLEAR      7   3  82 W9        30.13S WCI  -6
$$

ILZ028>032-037-038-041>044-048-051>054-059>061-101200-
CENTRAL ILLINOIS

CITY           SKY/WX    TMP DP  RH WIND       PRES   REMARKS
BLOOMINGTON    CLEAR      8   2  76 NW12      30.05S WCI  -7
DECATUR        CLEAR     11   3  70 W10       30.08S WCI  -3
PEORIA         CLEAR      9   0  67 NW7       30.09R WCI  -2
LACON*         CLEAR      9   1  69 NW12      30.06S WCI  -6
LINCOLN*       PTCLDY    10   5  78 W5        30.10R WCI   2
SPRINGFIELD    PTCLDY    10   3  73 W9        30.12S WCI  -3
TAYLORVILLE    NOT AVBL
$$

ILZ033-039-045-046-055>057-062-063-101200-
EAST-CENTRAL ILLINOIS

CITY           SKY/WX    TMP DP  RH WIND       PRES   REMARKS
CHAMPAIGN      CLEAR      9   3  77 W14       30.04R WCI  -7
MATTOON        CLEAR      9   3  77 W15       30.06R WCI  -8
$$

ILZ079-100>102-101200-
SOUTHWEST ILLINOIS

CITY           SKY/WX    TMP DP  RH WIND       PRES   REMARKS
ALTON          CLEAR     13   6  72 W10       30.16S WCI   0
BELLEVILLE     CLEAR     12   6  75 NW6       30.17R WCI   3
CAHOKIA*       CLOUDY    17   5  59 NW13      30.19R WCI   4
SPARTA*        MOCLDY    16   6  66 NW8G16    30.18R WCI   5
$$

ILZ064>066-069>071-074>076-080>082-084>086-088>090-092>094-101200-
SOUTH-CENTRAL ILLINOIS

CITY           SKY/WX    TMP DP  RH WIND       PRES   REMARKS
CARBONDALE     CLOUDY    16   6  65 NW9       30.18R WCI   4
MARION         PTCLDY    16   7  67 NW6       30.18R WCI   7
MT. VERNON     CLOUDY    16   1  53 W8        30.16R WCI   5
CENTRALIA*     MOCLDY    15   8  71 NW15      30.15R WCI   0
SALEM*         CLEAR     15   6  67 NW10G17   30.15R WCI   2
$$

ILZ067-068-072-073-078-083-087-091-101200-
SOUTHEAST ILLINOIS

CITY           SKY/WX    TMP DP  RH WIND       PRES   REMARKS
LAWRENCEVILLE  CLOUDY    14   6  70 NW16      30.12R WCI  -2
HARRISBURG*    CLOUDY    16   8  70 NW13G20   30.18R WCI   3
$$

ABBREVIATIONS USED IN REMARKS
   TC - TEMPERATURE IN CELSIUS
  WCI - WIND CHILL INDEX
   HX - HEAT INDEX
  VSB - VISIBILITY
$$





USA.gov is the U.S. government's official web portal to all federal, state and local government web resources and services.